Location: Cisewo
(53.3833°N, 14.9000°E)
Time: 15:23:04
(UTC+00:00)

NOAA 18 - Pass Details

Date: 19 September 2021
Orbit: 841 x 860 km, 99.0° (Epoch: 25 October)

Event Time Altitude Azimuth Distance (km) Brightness Sun altitude
Exits shadow 19:13:16 32° 100° (E) 1,406 5.8 -18.9°
Maximum altitude 19:14:54 40° 62° (ENE) 1,225 5.8 -19.1°
Drops below altitude 10° 19:19:59 10° 354° (N) 2,482 8.1 -19.8°
Sets 19:22:29 0° 348° (NNW) 3,424 9.0 -20.1°
